User: anonymous   Login
Location: La Comballaz
(46.3780°N, 7.0817°E)
Time: 21:32:09
(UTC+00:00)
Language:

Gurwin Techsat 1B - Orbit

View from above orbital plane
View from above orbital plane
View from above satellite
View from above satellite

Ground track
Ground track

The orbit data is extracted from the following two-line orbital elements,

1 25397U 98043D   21125.39528869 -.00000006  00000-0  16954-4 0  9997
2 25397  98.7679  71.0728 0001194 154.5247 205.5991 14.23707217185584
Epoch (UTC): 05 May 2021 09:29:12
Eccentricity: 0.0001194
inclination: 98.7679°
perigee height: 812 km
apogee height: 814 km
right ascension of ascending node: 71.0728°
argument of perigee: 154.5247°
revolutions per day: 14.23707217
mean anomaly at epoch: 205.5991°
orbit number at epoch: 18558

The dashed part of the orbit path shows where the satellite is in the earth's shadow,  

DLR